RYR68KK LEBL-EIDW

Flight info

Callsign RYR68KK
Flight time 2h 10m
Altitude 36000
Route NATPI DCT EVNAM DCT AGN DCT SECHE DCT UVELI DCT CNA DCT MANAK UY110 TIRAV UT183 BAGAD DCT DOLUR DCT UPCAB DCT IJALA DCT EVRIN DCT BUNED BUNED4L
Aircraft B738/M-SDE2E3FGHIRWXY/LB1

Departure

Time 2026-05-07 23:42
Airport Josep Tarradellas Barcelona-El Prat Airport (LEBL)

Arrival

Time 2026-05-08 01:52
Airport Dublin Airport (EIDW)
Time Latitude Longitude Altitude Speed Heading
2026-05-07 23:01 41.30057 2.07396 20 ft 0 kts 26°
2026-05-07 23:33 41.30056 2.07396 20 ft 1 kts 26°
2026-05-07 23:34 41.30042 2.07387 20 ft 2 kts 26°
2026-05-07 23:34 41.30027 2.07377 23 ft 2 kts 26°
2026-05-07 23:34 41.30011 2.07369 20 ft 2 kts
2026-05-07 23:34 41.29995 2.07372 19 ft 2 kts 343°
2026-05-07 23:35 41.29980 2.07380 20 ft 2 kts 325°
2026-05-07 23:35 41.29967 2.07395 20 ft 2 kts 309°
2026-05-07 23:35 41.29958 2.07413 17 ft 2 kts 293°
2026-05-07 23:35 41.29956 2.07434 17 ft 2 kts 258°
2026-05-07 23:36 41.29961 2.07455 18 ft 2 kts 247°
2026-05-07 23:36 41.29967 2.07475 17 ft 2 kts 243°
2026-05-07 23:36 41.29971 2.07484 19 ft 0 kts 243°
2026-05-07 23:38 41.29963 2.07462 18 ft 9 kts 244°
2026-05-07 23:39 41.29917 2.07331 18 ft 21 kts 245°
2026-05-07 23:39 41.29869 2.07195 16 ft 12 kts 234°
2026-05-07 23:39 41.29779 2.07204 16 ft 16 kts 160°
2026-05-07 23:39 41.29704 2.07115 17 ft 16 kts 245°
2026-05-07 23:40 41.29612 2.07079 14 ft 17 kts 155°
2026-05-07 23:40 41.29509 2.07141 15 ft 16 kts 155°
2026-05-07 23:40 41.29499 2.07235 18 ft 8 kts 65°
2026-05-07 23:40 41.29505 2.07255 17 ft 0 kts 66°
2026-05-07 23:41 41.29506 2.07256 17 ft 3 kts 66°
2026-05-07 23:41 41.29594 2.07515 16 ft 63 kts 65°
2026-05-07 23:41 41.29862 2.08296 22 ft 120 kts 66°
2026-05-07 23:41 41.30283 2.09493 65 ft 160 kts 63°
2026-05-07 23:42 41.30775 2.10874 423 ft 174 kts 63°
2026-05-07 23:42 41.31302 2.12402 858 ft 187 kts 65°
2026-05-07 23:42 41.31807 2.13904 1597 ft 167 kts 66°
2026-05-07 23:42 41.32288 2.15328 1915 ft 179 kts 66°
2026-05-07 23:43 41.32934 2.16888 2181 ft 208 kts 46°
2026-05-07 23:43 41.34283 2.17735 2385 ft 230 kts
2026-05-07 23:43 41.35861 2.17182 2760 ft 245 kts 331°
2026-05-07 23:43 41.37321 2.15840 3069 ft 263 kts 320°
2026-05-07 23:44 41.38728 2.14234 3818 ft 267 kts 318°
2026-05-07 23:44 41.40111 2.12588 4697 ft 267 kts 317°
2026-05-07 23:44 41.41506 2.10925 5481 ft 271 kts 318°
2026-05-07 23:44 41.42903 2.09267 6285 ft 273 kts 318°
2026-05-07 23:45 41.44348 2.07560 7060 ft 276 kts 318°
2026-05-07 23:45 41.45796 2.05856 7801 ft 279 kts 319°
2026-05-07 23:45 41.47242 2.04160 8534 ft 282 kts 319°
2026-05-07 23:45 41.48721 2.02428 9306 ft 284 kts 319°
2026-05-07 23:46 41.50219 2.00676 10038 ft 288 kts 319°
2026-05-07 23:46 41.51755 1.98881 10447 ft 303 kts 319°
2026-05-07 23:46 41.53400 1.96957 10618 ft 326 kts 319°
2026-05-07 23:46 41.55145 1.94916 11013 ft 338 kts 319°
2026-05-07 23:47 41.56930 1.92828 11677 ft 342 kts 318°
2026-05-07 23:47 41.58723 1.90729 12433 ft 344 kts 318°
2026-05-07 23:47 41.60534 1.88607 13149 ft 348 kts 318°
2026-05-07 23:47 41.62364 1.86461 13878 ft 352 kts 318°
2026-05-07 23:48 41.64210 1.84296 14536 ft 356 kts 318°
2026-05-07 23:48 41.66081 1.82099 15221 ft 359 kts 318°
2026-05-07 23:48 41.67963 1.79887 15914 ft 362 kts 318°
2026-05-07 23:48 41.69865 1.77649 16594 ft 366 kts 317°
2026-05-07 23:49 41.71786 1.75389 17268 ft 370 kts 317°
2026-05-07 23:49 41.73728 1.73101 17915 ft 374 kts 317°
2026-05-07 23:49 41.75712 1.70818 18541 ft 378 kts 321°
2026-05-07 23:49 41.77938 1.68905 19113 ft 383 kts 331°
2026-05-07 23:50 41.80374 1.67530 19702 ft 386 kts 338°
2026-05-07 23:50 41.82921 1.66323 20273 ft 390 kts 339°
2026-05-07 23:50 41.85504 1.65142 20812 ft 394 kts 339°
2026-05-07 23:50 41.88112 1.63954 21377 ft 397 kts 339°
2026-05-07 23:51 41.90732 1.62749 21941 ft 399 kts 338°
2026-05-07 23:51 41.93369 1.61524 22489 ft 402 kts 338°
2026-05-07 23:51 41.96025 1.60278 23014 ft 405 kts 338°
2026-05-07 23:51 41.98698 1.59016 23542 ft 408 kts 338°
2026-05-07 23:52 42.01390 1.57740 23985 ft 412 kts 337°
2026-05-07 23:52 42.04107 1.56449 24392 ft 415 kts 337°
2026-05-07 23:52 42.06812 1.55162 24784 ft 419 kts 337°
2026-05-07 23:52 42.09569 1.53849 25193 ft 422 kts 337°
2026-05-07 23:53 42.12355 1.52520 25584 ft 426 kts 337°
2026-05-07 23:53 42.15158 1.51183 25987 ft 429 kts 337°
2026-05-07 23:53 42.17986 1.49833 26361 ft 433 kts 337°
2026-05-07 23:53 42.20837 1.48470 26747 ft 436 kts 337°
2026-05-07 23:54 42.23702 1.47099 27125 ft 439 kts 337°
2026-05-07 23:54 42.26593 1.45715 27495 ft 442 kts 337°
2026-05-07 23:54 42.29503 1.44321 27854 ft 446 kts 337°
2026-05-07 23:54 42.32436 1.42913 28205 ft 448 kts 337°
2026-05-07 23:55 42.35384 1.41498 28553 ft 451 kts 337°
2026-05-07 23:55 42.38345 1.40075 28912 ft 453 kts 337°
2026-05-07 23:55 42.41328 1.38639 29272 ft 456 kts 337°
2026-05-07 23:55 42.44327 1.37195 29603 ft 458 kts 337°
2026-05-07 23:56 42.47340 1.35742 29947 ft 460 kts 337°
2026-05-07 23:56 42.50366 1.34282 30292 ft 461 kts 337°
2026-05-07 23:56 42.53374 1.32830 30826 ft 456 kts 337°
2026-05-07 23:56 42.56335 1.31401 31461 ft 448 kts 336°
2026-05-07 23:57 42.59248 1.29993 32023 ft 442 kts 336°
2026-05-07 23:57 42.62137 1.28591 32447 ft 440 kts 336°
2026-05-07 23:57 42.65016 1.27192 32801 ft 439 kts 336°
2026-05-07 23:57 42.67897 1.25792 33190 ft 438 kts 336°
2026-05-07 23:58 42.70718 1.24421 33643 ft 434 kts 336°
2026-05-07 23:58 42.73516 1.22940 34099 ft 428 kts 331°
2026-05-07 23:58 42.76186 1.21180 34402 ft 426 kts 329°
2026-05-07 23:58 42.78834 1.19315 34603 ft 428 kts 328°
2026-05-07 23:59 42.81473 1.17414 34792 ft 428 kts 328°
2026-05-07 23:59 42.84104 1.15516 35043 ft 428 kts 328°
2026-05-07 23:59 42.86709 1.13647 35298 ft 428 kts 328°
2026-05-07 23:59 42.89351 1.11765 35511 ft 428 kts 328°
2026-05-08 00:00 42.92005 1.09885 35677 ft 430 kts 328°
2026-05-08 00:00 42.94662 1.08009 35923 ft 429 kts 328°
2026-05-08 00:00 43.00006 1.04242 35995 ft 434 kts 328°
2026-05-08 00:01 43.05339 1.00482 35977 ft 433 kts 328°
2026-05-08 00:01 43.10647 0.96735 35976 ft 427 kts 328°
2026-05-08 00:02 43.15916 0.93004 35974 ft 426 kts 328°
2026-05-08 00:02 43.21178 0.89269 35984 ft 425 kts 328°
2026-05-08 00:03 43.26437 0.85529 35971 ft 426 kts 328°
2026-05-08 00:03 43.31694 0.81783 35979 ft 426 kts 328°
2026-05-08 00:04 43.36960 0.78023 35979 ft 427 kts 328°
2026-05-08 00:04 43.42208 0.74269 35975 ft 428 kts 328°
2026-05-08 00:05 43.47507 0.70472 35977 ft 430 kts 328°
2026-05-08 00:05 43.52828 0.66651 35974 ft 431 kts 328°
2026-05-08 00:06 43.58159 0.62815 35970 ft 432 kts 328°
2026-05-08 00:06 43.63467 0.58989 35968 ft 433 kts 329°
2026-05-08 00:07 43.68807 0.55131 35962 ft 433 kts 328°
2026-05-08 00:07 43.74144 0.51269 35961 ft 432 kts 329°
2026-05-08 00:08 43.79465 0.47410 35962 ft 431 kts 329°
2026-05-08 00:08 43.84775 0.43550 35961 ft 431 kts 328°
2026-05-08 00:09 43.90080 0.39687 35961 ft 430 kts 328°
2026-05-08 00:09 43.95339 0.35849 35970 ft 429 kts 328°
2026-05-08 00:10 44.00622 0.31986 35970 ft 428 kts 328°
2026-05-08 00:10 44.05899 0.28119 35964 ft 428 kts 328°
2026-05-08 00:11 44.11160 0.24257 35966 ft 427 kts 328°
2026-05-08 00:11 44.16412 0.20392 35968 ft 427 kts 328°
2026-05-08 00:12 44.21665 0.16520 35971 ft 427 kts 328°
2026-05-08 00:12 44.26917 0.12640 35965 ft 427 kts 328°
2026-05-08 00:13 44.32128 0.08782 35968 ft 427 kts 328°
2026-05-08 00:13 44.37379 0.04888 35968 ft 427 kts 328°
2026-05-08 00:14 44.42623 0.00991 35971 ft 427 kts 328°
2026-05-08 00:14 44.47880 -0.02924 35971 ft 427 kts 328°
2026-05-08 00:15 44.53087 -0.06810 35969 ft 427 kts 328°
2026-05-08 00:15 44.58333 -0.10733 35969 ft 427 kts 328°
2026-05-08 00:16 44.63583 -0.14667 35970 ft 427 kts 328°
2026-05-08 00:16 44.68828 -0.18606 35968 ft 427 kts 328°
2026-05-08 00:17 44.74034 -0.22522 35972 ft 427 kts 328°
2026-05-08 00:17 44.79272 -0.26472 35970 ft 427 kts 328°
2026-05-08 00:18 44.84504 -0.30425 35966 ft 426 kts 328°
2026-05-08 00:18 44.89732 -0.34383 35964 ft 426 kts 328°
2026-05-08 00:19 44.94955 -0.38346 35968 ft 426 kts 328°
2026-05-08 00:19 45.00172 -0.42312 35962 ft 426 kts 328°
2026-05-08 00:20 45.04505 -0.45613 35971 ft 425 kts 328°
2026-05-08 00:20 45.10590 -0.50258 35967 ft 425 kts 328°
2026-05-08 00:21 45.15793 -0.54238 35972 ft 425 kts 328°
2026-05-08 00:21 45.20109 -0.57547 35963 ft 424 kts 328°
2026-05-08 00:22 45.25306 -0.61538 35960 ft 424 kts 328°
2026-05-08 00:22 45.30495 -0.65532 35971 ft 424 kts 328°
2026-05-08 00:23 45.35674 -0.69526 35964 ft 423 kts 328°
2026-05-08 00:23 45.40823 -0.73505 35964 ft 423 kts 328°
2026-05-08 00:24 45.45992 -0.77509 35969 ft 423 kts 328°
2026-05-08 00:24 45.51154 -0.81515 35965 ft 422 kts 328°
2026-05-08 00:25 45.56316 -0.85530 35962 ft 422 kts 328°
2026-05-08 00:25 45.61479 -0.89554 35960 ft 422 kts 328°
2026-05-08 00:26 45.66632 -0.93578 35959 ft 422 kts 328°
2026-05-08 00:26 45.71787 -0.97613 35969 ft 422 kts 328°
2026-05-08 00:27 45.76933 -1.01650 35973 ft 421 kts 328°
2026-05-08 00:27 45.82075 -1.05691 35961 ft 421 kts 328°
2026-05-08 00:28 45.87189 -1.09719 35962 ft 421 kts 328°
2026-05-08 00:28 45.92327 -1.13775 35965 ft 421 kts 328°
2026-05-08 00:29 45.97464 -1.17838 35962 ft 421 kts 328°
2026-05-08 00:29 46.02597 -1.21907 35968 ft 421 kts 328°
2026-05-08 00:30 46.07741 -1.25994 35969 ft 421 kts 328°
2026-05-08 00:30 46.12847 -1.30059 35968 ft 421 kts 328°
2026-05-08 00:31 46.17985 -1.34158 35970 ft 422 kts 328°
2026-05-08 00:31 46.23124 -1.38267 35970 ft 422 kts 328°
2026-05-08 00:32 46.28268 -1.42389 35965 ft 422 kts 328°
2026-05-08 00:32 46.33366 -1.46482 35970 ft 422 kts 328°
2026-05-08 00:33 46.38500 -1.50614 35970 ft 422 kts 328°
2026-05-08 00:33 46.43632 -1.54753 35977 ft 422 kts 328°
2026-05-08 00:34 46.48769 -1.58905 35981 ft 422 kts 328°
2026-05-08 00:34 46.53906 -1.63066 35982 ft 422 kts 328°
2026-05-08 00:35 46.59038 -1.67232 35987 ft 422 kts 328°
2026-05-08 00:35 46.64171 -1.71409 35985 ft 423 kts 328°
2026-05-08 00:36 46.69302 -1.75593 35985 ft 422 kts 328°
2026-05-08 00:36 46.74432 -1.79785 35984 ft 423 kts 328°
2026-05-08 00:37 46.79528 -1.83958 35983 ft 423 kts 328°
2026-05-08 00:38 46.87227 -1.90282 35980 ft 422 kts 328°
2026-05-08 00:38 46.92323 -1.94479 35985 ft 422 kts 328°
2026-05-08 00:39 46.97441 -1.98702 35987 ft 422 kts 328°
2026-05-08 00:39 47.02252 -2.03525 35979 ft 417 kts 314°
2026-05-08 00:40 47.06317 -2.09561 35987 ft 416 kts 312°
2026-05-08 00:40 47.10346 -2.15659 35990 ft 416 kts 312°
2026-05-08 00:41 47.14393 -2.21740 35993 ft 416 kts 312°
2026-05-08 00:41 47.18452 -2.27813 35992 ft 416 kts 312°
2026-05-08 00:42 47.22511 -2.33889 35993 ft 416 kts 312°
2026-05-08 00:42 47.26535 -2.39927 35993 ft 416 kts 312°
2026-05-08 00:43 47.30586 -2.46021 35989 ft 416 kts 312°
2026-05-08 00:43 47.34629 -2.52117 35992 ft 416 kts 312°
2026-05-08 00:44 47.38670 -2.58224 35988 ft 415 kts 312°
2026-05-08 00:44 47.42711 -2.64345 35990 ft 415 kts 311°
2026-05-08 00:45 47.46735 -2.70456 35991 ft 415 kts 311°
2026-05-08 00:45 47.50731 -2.76538 35991 ft 414 kts 311°
2026-05-08 00:46 47.54743 -2.82658 35991 ft 414 kts 311°
2026-05-08 00:46 47.58804 -2.88694 35984 ft 415 kts 317°
2026-05-08 00:47 47.63428 -2.93845 35993 ft 416 kts 321°
2026-05-08 00:47 47.68114 -2.98893 35991 ft 416 kts 321°
2026-05-08 00:48 47.72777 -3.03960 36000 ft 415 kts 320°
2026-05-08 00:48 47.77431 -3.09063 35996 ft 415 kts 320°
2026-05-08 00:49 47.82075 -3.14181 35993 ft 415 kts 320°
2026-05-08 00:49 47.86713 -3.19307 35999 ft 415 kts 320°
2026-05-08 00:50 47.91352 -3.24447 35997 ft 415 kts 320°
2026-05-08 00:50 47.95957 -3.29558 35994 ft 415 kts 320°
2026-05-08 00:51 48.00588 -3.34711 36007 ft 415 kts 320°
2026-05-08 00:51 48.05224 -3.39880 36010 ft 415 kts 320°
2026-05-08 00:52 48.09855 -3.45057 36008 ft 416 kts 320°
2026-05-08 00:52 48.14485 -3.50244 36009 ft 416 kts 320°
2026-05-08 00:53 48.19110 -3.55438 36012 ft 416 kts 320°
2026-05-08 00:53 48.23708 -3.60613 36007 ft 416 kts 320°
2026-05-08 00:54 48.28332 -3.65829 36011 ft 415 kts 320°
2026-05-08 00:54 48.32948 -3.71048 36015 ft 415 kts 320°
2026-05-08 00:55 48.37561 -3.76277 36015 ft 415 kts 320°
2026-05-08 00:55 48.42173 -3.81516 36021 ft 415 kts 320°
2026-05-08 00:56 48.46774 -3.86755 36022 ft 415 kts 320°
2026-05-08 00:56 48.51357 -3.91985 36021 ft 415 kts 320°
2026-05-08 00:57 48.55962 -3.97253 36022 ft 415 kts 320°
2026-05-08 00:57 48.60562 -4.02528 36025 ft 415 kts 320°
2026-05-08 00:58 48.65162 -4.07816 36019 ft 415 kts 320°
2026-05-08 00:58 48.69755 -4.13107 36020 ft 415 kts 320°
2026-05-08 00:59 48.74350 -4.18412 36022 ft 415 kts 320°
2026-05-08 00:59 48.78937 -4.23722 36023 ft 415 kts 320°
2026-05-08 01:00 48.83496 -4.29012 36019 ft 414 kts 320°
2026-05-08 01:00 48.88076 -4.34338 36019 ft 414 kts 320°
2026-05-08 01:01 48.92655 -4.39676 36022 ft 414 kts 320°
2026-05-08 01:01 48.97226 -4.45016 36012 ft 414 kts 320°
2026-05-08 01:02 49.01786 -4.50358 36021 ft 414 kts 319°
2026-05-08 01:02 49.06351 -4.55718 36015 ft 414 kts 319°
2026-05-08 01:03 49.10904 -4.61076 36013 ft 413 kts 319°
2026-05-08 01:03 49.15426 -4.66410 36011 ft 413 kts 319°
2026-05-08 01:04 49.19976 -4.71790 36010 ft 413 kts 319°
2026-05-08 01:04 49.24522 -4.77179 36011 ft 413 kts 319°
2026-05-08 01:05 49.29066 -4.82577 36013 ft 413 kts 319°
2026-05-08 01:05 49.33584 -4.87959 36012 ft 413 kts 319°
2026-05-08 01:06 49.38122 -4.93378 36013 ft 413 kts 319°
2026-05-08 01:06 49.42650 -4.98796 36008 ft 413 kts 319°
2026-05-08 01:07 49.47178 -5.04227 36009 ft 413 kts 319°
2026-05-08 01:07 49.52031 -5.08976 36016 ft 415 kts 327°
2026-05-08 01:08 49.57090 -5.13284 36007 ft 415 kts 328°
2026-05-08 01:08 49.62148 -5.17605 36004 ft 415 kts 328°
2026-05-08 01:09 49.67192 -5.21961 36003 ft 415 kts 327°
2026-05-08 01:09 49.71372 -5.25594 35998 ft 415 kts 327°
2026-05-08 01:10 49.77219 -5.30696 35996 ft 415 kts 327°
2026-05-08 01:10 49.81429 -5.34378 35998 ft 415 kts 327°
2026-05-08 01:11 49.86452 -5.38781 35997 ft 415 kts 327°
2026-05-08 01:11 49.91446 -5.43168 35998 ft 415 kts 327°
2026-05-08 01:12 49.96470 -5.47592 35997 ft 415 kts 327°
2026-05-08 01:12 50.01497 -5.52029 35998 ft 415 kts 327°
2026-05-08 01:13 50.06487 -5.56445 35999 ft 415 kts 327°
2026-05-08 01:13 50.11500 -5.60892 35999 ft 415 kts 327°
2026-05-08 01:14 50.16518 -5.65354 36007 ft 415 kts 327°
2026-05-08 01:14 50.21534 -5.69825 36004 ft 415 kts 327°
2026-05-08 01:15 50.26540 -5.74298 36007 ft 415 kts 327°
2026-05-08 01:15 50.31551 -5.78787 36012 ft 415 kts 327°
2026-05-08 01:16 50.36528 -5.83256 36011 ft 414 kts 327°
2026-05-08 01:16 50.41535 -5.87763 36018 ft 414 kts 327°
2026-05-08 01:17 50.46528 -5.92268 36017 ft 414 kts 327°
2026-05-08 01:17 50.51521 -5.96786 36014 ft 414 kts 326°
2026-05-08 01:18 50.56513 -6.01312 36027 ft 414 kts 326°
2026-05-08 01:18 50.61501 -6.05847 36016 ft 414 kts 326°
2026-05-08 01:19 50.66485 -6.10389 36029 ft 414 kts 326°
2026-05-08 01:19 50.71555 -6.14597 36007 ft 419 kts 338°
2026-05-08 01:20 50.77372 -6.15841 36020 ft 430 kts 359°
2026-05-08 01:20 50.83352 -6.15012 36022 ft 432 kts
2026-05-08 01:21 50.89332 -6.14054 36024 ft 432 kts
2026-05-08 01:21 50.95325 -6.13145 36024 ft 432 kts
2026-05-08 01:22 51.01273 -6.12285 36017 ft 428 kts
2026-05-08 01:22 51.07164 -6.11444 36023 ft 423 kts
2026-05-08 01:23 51.13028 -6.10613 36035 ft 423 kts
2026-05-08 01:23 51.18754 -6.09789 36013 ft 400 kts
2026-05-08 01:23 51.21476 -6.09393 36012 ft 386 kts
2026-05-08 01:24 51.24077 -6.09015 36008 ft 374 kts 360°
2026-05-08 01:24 51.29301 -6.08277 36049 ft 382 kts 360°
2026-05-08 01:25 51.34698 -6.07518 35735 ft 402 kts
2026-05-08 01:25 51.37526 -6.07120 35034 ft 409 kts 360°
2026-05-08 01:25 51.40350 -6.06712 34402 ft 408 kts 360°
2026-05-08 01:25 51.43178 -6.06299 33734 ft 406 kts 360°
2026-05-08 01:26 51.45991 -6.05889 32995 ft 405 kts 360°
2026-05-08 01:26 51.48791 -6.05480 32277 ft 403 kts
2026-05-08 01:26 51.51579 -6.05075 31566 ft 402 kts
2026-05-08 01:26 51.54359 -6.04670 30899 ft 400 kts
2026-05-08 01:27 51.57126 -6.04268 30237 ft 398 kts
2026-05-08 01:27 51.59883 -6.03867 29485 ft 397 kts
2026-05-08 01:27 51.62614 -6.03468 28974 ft 391 kts
2026-05-08 01:27 51.65307 -6.03074 28546 ft 387 kts
2026-05-08 01:28 51.67973 -6.02684 28169 ft 382 kts
2026-05-08 01:28 51.70611 -6.02299 27765 ft 379 kts
2026-05-08 01:28 51.73223 -6.01917 27383 ft 375 kts
2026-05-08 01:28 51.75816 -6.01538 27011 ft 372 kts
2026-05-08 01:29 51.78347 -6.01167 26641 ft 369 kts
2026-05-08 01:29 51.80895 -6.00794 26267 ft 366 kts
2026-05-08 01:29 51.83424 -6.00422 25909 ft 364 kts
2026-05-08 01:29 51.85944 -6.00052 25549 ft 362 kts
2026-05-08 01:30 51.88442 -5.99685 25192 ft 360 kts
2026-05-08 01:30 51.90935 -5.99318 24835 ft 358 kts
2026-05-08 01:30 51.93412 -5.98953 24477 ft 357 kts
2026-05-08 01:30 51.95881 -5.98588 24103 ft 356 kts
2026-05-08 01:31 51.98352 -5.98223 23740 ft 356 kts
2026-05-08 01:31 52.00815 -5.97859 23327 ft 355 kts
2026-05-08 01:31 52.03274 -5.97494 22937 ft 354 kts
2026-05-08 01:31 52.05715 -5.97131 22569 ft 352 kts
2026-05-08 01:32 52.08143 -5.96770 22206 ft 349 kts
2026-05-08 01:32 52.10561 -5.96410 21853 ft 347 kts
2026-05-08 01:32 52.12964 -5.96052 21506 ft 345 kts
2026-05-08 01:32 52.15321 -5.95701 21159 ft 344 kts
2026-05-08 01:33 52.17697 -5.95346 20814 ft 342 kts
2026-05-08 01:33 52.20064 -5.94993 20470 ft 340 kts
2026-05-08 01:33 52.22417 -5.94641 20122 ft 339 kts
2026-05-08 01:33 52.24761 -5.94290 19788 ft 338 kts
2026-05-08 01:34 52.27098 -5.93940 19448 ft 337 kts
2026-05-08 01:34 52.29428 -5.93590 19109 ft 336 kts
2026-05-08 01:34 52.31760 -5.93240 18758 ft 335 kts
2026-05-08 01:34 52.34085 -5.92891 18411 ft 335 kts
2026-05-08 01:35 52.36405 -5.92542 18018 ft 334 kts
2026-05-08 01:35 52.38694 -5.92197 17665 ft 333 kts
2026-05-08 01:35 52.40992 -5.91850 17316 ft 331 kts
2026-05-08 01:35 52.43278 -5.91505 16970 ft 329 kts
2026-05-08 01:36 52.45550 -5.91161 16637 ft 327 kts
2026-05-08 01:36 52.47812 -5.90819 16300 ft 325 kts
2026-05-08 01:36 52.50059 -5.90479 15972 ft 323 kts
2026-05-08 01:36 52.52290 -5.90140 15643 ft 321 kts
2026-05-08 01:37 52.54511 -5.89803 15314 ft 320 kts
2026-05-08 01:37 52.56722 -5.89467 14994 ft 318 kts
2026-05-08 01:37 52.58923 -5.89133 14668 ft 317 kts
2026-05-08 01:37 52.61111 -5.88800 14342 ft 315 kts
2026-05-08 01:38 52.63292 -5.88468 14021 ft 314 kts
2026-05-08 01:38 52.65464 -5.88136 13678 ft 313 kts
2026-05-08 01:38 52.67625 -5.87807 13317 ft 311 kts
2026-05-08 01:38 52.69779 -5.87478 12977 ft 310 kts
2026-05-08 01:39 52.71914 -5.87151 12645 ft 308 kts
2026-05-08 01:39 52.74041 -5.86825 12313 ft 306 kts
2026-05-08 01:39 52.76126 -5.86506 11998 ft 304 kts
2026-05-08 01:39 52.78256 -5.86179 11666 ft 302 kts
2026-05-08 01:40 52.80322 -5.85862 11366 ft 301 kts
2026-05-08 01:40 52.82398 -5.85543 11055 ft 299 kts
2026-05-08 01:40 52.84471 -5.85224 10736 ft 298 kts
2026-05-08 01:40 52.86532 -5.84907 10431 ft 297 kts
2026-05-08 01:41 52.88590 -5.84590 10154 ft 294 kts
2026-05-08 01:41 52.90603 -5.84279 9981 ft 288 kts
2026-05-08 01:41 52.92598 -5.83971 9653 ft 287 kts
2026-05-08 01:41 52.94564 -5.83667 9344 ft 286 kts
2026-05-08 01:42 52.96543 -5.83360 9037 ft 284 kts
2026-05-08 01:42 52.98504 -5.83057 8743 ft 283 kts
2026-05-08 01:42 53.00460 -5.82754 8445 ft 281 kts
2026-05-08 01:42 53.02400 -5.82453 8167 ft 279 kts
2026-05-08 01:43 53.04327 -5.82153 7884 ft 278 kts
2026-05-08 01:43 53.06246 -5.81855 7606 ft 276 kts
2026-05-08 01:43 53.08152 -5.81559 7345 ft 273 kts
2026-05-08 01:43 53.10017 -5.81268 7248 ft 265 kts
2026-05-08 01:44 53.11827 -5.80986 7126 ft 257 kts
2026-05-08 01:44 53.13586 -5.80719 7010 ft 250 kts
2026-05-08 01:44 53.15272 -5.81108 6815 ft 243 kts 340°
2026-05-08 01:44 53.16882 -5.81981 6608 ft 244 kts 340°
2026-05-08 01:45 53.18506 -5.82868 6392 ft 246 kts 340°
2026-05-08 01:45 53.20136 -5.83754 6142 ft 246 kts 340°
2026-05-08 01:45 53.21738 -5.84619 5911 ft 244 kts 341°
2026-05-08 01:45 53.23349 -5.85485 5682 ft 242 kts 341°
2026-05-08 01:46 53.24954 -5.86345 5454 ft 241 kts 341°
2026-05-08 01:46 53.26543 -5.87194 5232 ft 239 kts 341°
2026-05-08 01:46 53.28129 -5.88043 5008 ft 237 kts 341°
2026-05-08 01:46 53.29699 -5.88881 4780 ft 236 kts 341°
2026-05-08 01:47 53.31259 -5.89716 4572 ft 234 kts 341°
2026-05-08 01:47 53.32789 -5.90532 4350 ft 233 kts 341°
2026-05-08 01:47 53.34331 -5.91357 4138 ft 232 kts 340°
2026-05-08 01:48 53.37396 -5.92995 3702 ft 229 kts 340°
2026-05-08 01:48 53.38907 -5.93808 3497 ft 226 kts 338°
2026-05-08 01:48 53.40160 -5.95267 3257 ft 218 kts 300°
2026-05-08 01:48 53.40589 -5.97621 3121 ft 210 kts 275°
2026-05-08 01:49 53.40714 -6.00057 3027 ft 208 kts 273°
2026-05-08 01:49 53.40824 -6.02493 2895 ft 211 kts 274°
2026-05-08 01:49 53.40948 -6.04940 2623 ft 211 kts 274°
2026-05-08 01:49 53.41076 -6.07365 2345 ft 205 kts 275°
2026-05-08 01:50 53.41199 -6.09684 2067 ft 193 kts 275°
2026-05-08 01:50 53.41295 -6.11850 1852 ft 180 kts 273°
2026-05-08 01:50 53.41380 -6.13869 1630 ft 169 kts 275°
2026-05-08 01:50 53.41487 -6.15754 1442 ft 152 kts 275°
2026-05-08 01:51 53.41593 -6.17441 1181 ft 145 kts 274°
2026-05-08 01:51 53.41689 -6.19124 948 ft 144 kts 275°
2026-05-08 01:51 53.41792 -6.20785 754 ft 142 kts 275°
2026-05-08 01:51 53.41879 -6.22456 566 ft 144 kts 274°
2026-05-08 01:52 53.41974 -6.24134 352 ft 144 kts 274°
2026-05-08 01:52 53.42065 -6.25783 220 ft 137 kts 275°
2026-05-08 01:52 53.42138 -6.27102 211 ft 83 kts 275°
2026-05-08 01:52 53.42172 -6.27702 209 ft 21 kts 283°
2026-05-08 01:53 53.42205 -6.27856 211 ft 19 kts 295°
2026-05-08 01:53 53.42268 -6.28043 210 ft 17 kts 300°
2026-05-08 01:53 53.42355 -6.28104 212 ft 17 kts 51°
2026-05-08 01:53 53.42356 -6.27920 210 ft 15 kts 95°
2026-05-08 01:54 53.42346 -6.27744 210 ft 15 kts 95°
2026-05-08 01:54 53.42337 -6.27579 218 ft 14 kts 95°
2026-05-08 01:54 53.42328 -6.27418 210 ft 14 kts 95°
2026-05-08 01:54 53.42319 -6.27262 214 ft 14 kts 95°
2026-05-08 01:55 53.42310 -6.27083 217 ft 17 kts 95°
2026-05-08 01:55 53.42298 -6.26879 210 ft 18 kts 95°
2026-05-08 01:55 53.42286 -6.26665 210 ft 18 kts 95°
2026-05-08 01:55 53.42275 -6.26459 210 ft 17 kts 95°
2026-05-08 01:56 53.42265 -6.26263 210 ft 17 kts 95°
2026-05-08 01:56 53.42256 -6.26074 210 ft 16 kts 88°
2026-05-08 01:56 53.42299 -6.25912 214 ft 15 kts 52°
2026-05-08 01:56 53.42370 -6.25785 213 ft 15 kts 46°
2026-05-08 01:57 53.42440 -6.25665 210 ft 14 kts 45°
2026-05-08 01:57 53.42484 -6.25589 210 ft 14 kts 45°
2026-05-08 01:57 53.42549 -6.25478 209 ft 13 kts 45°
2026-05-08 01:57 53.42613 -6.25369 214 ft 13 kts 45°
2026-05-08 01:58 53.42676 -6.25263 210 ft 13 kts 45°
2026-05-08 01:58 53.42736 -6.25159 214 ft 12 kts 46°
2026-05-08 01:58 53.42798 -6.25060 215 ft 12 kts 35°
2026-05-08 01:58 53.42861 -6.24973 210 ft 12 kts 47°
2026-05-08 01:59 53.42921 -6.24887 214 ft 11 kts 10°
2026-05-08 01:59 53.42952 -6.24990 217 ft 11 kts 274°
2026-05-08 01:59 53.42958 -6.25117 213 ft 11 kts 275°
2026-05-08 01:59 53.42959 -6.25241 210 ft 11 kts 256°
2026-05-08 02:00 53.42927 -6.25350 216 ft 10 kts 232°
2026-05-08 02:00 53.42877 -6.25435 210 ft 10 kts 225°
2026-05-08 02:00 53.42828 -6.25516 218 ft 10 kts 221°
2026-05-08 02:00 53.42764 -6.25520 216 ft 10 kts 157°
2026-05-08 02:01 53.42693 -6.25471 218 ft 12 kts 157°
2026-05-08 02:01 53.42600 -6.25402 212 ft 21 kts 156°
2026-05-08 02:01 53.42445 -6.25290 214 ft 27 kts 156°
2026-05-08 02:01 53.42277 -6.25168 216 ft 25 kts 156°
2026-05-08 02:02 53.42219 -6.25019 214 ft 18 kts 59°
2026-05-08 02:02 53.42301 -6.24873 213 ft 17 kts 44°
2026-05-08 02:02 53.42408 -6.24893 211 ft 16 kts 336°
2026-05-08 02:02 53.42510 -6.24966 215 ft 16 kts 350°
2026-05-08 02:03 53.42593 -6.24871 212 ft 15 kts
2026-05-08 02:03 53.42688 -6.24949 215 ft 15 kts 328°
2026-05-08 02:03 53.42766 -6.25054 213 ft 14 kts 295°
2026-05-08 02:03 53.42720 -6.25188 216 ft 14 kts 227°
2026-05-08 02:04 53.42654 -6.25301 213 ft 14 kts 224°
2026-05-08 02:04 53.42642 -6.25456 213 ft 16 kts 279°
2026-05-08 02:04 53.42596 -6.25596 214 ft 12 kts 229°
2026-05-08 02:04 53.42625 -6.25720 212 ft 17 kts 336°
2026-05-08 02:05 53.42742 -6.25665 213 ft 22 kts 45°
2026-05-08 02:05 53.42870 -6.25595 223 ft 22 kts 336°
2026-05-08 02:05 53.43007 -6.25697 214 ft 22 kts 336°
2026-05-08 02:05 53.43142 -6.25671 216 ft 21 kts 76°
2026-05-08 02:06 53.43139 -6.25497 214 ft 15 kts 144°
2026-05-08 02:06 53.43037 -6.25419 214 ft 17 kts 156°
2026-05-08 02:06 53.42943 -6.25324 215 ft 16 kts 104°
2026-05-08 02:06 53.42961 -6.25155 210 ft 11 kts 94°
2026-05-08 02:07 53.42956 -6.25057 215 ft 8 kts 95°
2026-05-08 02:07 53.42976 -6.25014 217 ft 6 kts
2026-05-08 02:07 53.42981 -6.25013 210 ft 1 kts
2026-05-08 02:07 53.43007 -6.25009 214 ft 6 kts
2026-05-08 02:08 53.43011 -6.25009 212 ft 0 kts